Hourly Data Report for August 30, 2018

TORONTO CITY
ONTARIO
Current Station Operator: ECCC - MSC

43°40'00.000" N
79°24'00.000" W
112.50 m
6158355
71508
XTO

Download Data

Hourly Data (August 2018)
Hourly Data Report for August 30, 2018
TIME
LST
Temp Definition
°C
Dew Point Definition
°C
Rel Hum Definition
%
Precip. Amount Definition
mm

Wind Dir Definition
10's deg

Wind Spd Definition
km/h
Visibility Definition
km
Stn Press Definition
kPa
Hmdx Definition


Wind Chill Definition


Weather Definition


00:00 19.7 13.9 69 0.0 LegendMM LegendMM   100.33     LegendNANA
01:00 18.8 13.6 72 0.0 LegendMM LegendMM   100.38     LegendNANA
02:00 18.2 13.5 74 0.0 LegendMM LegendMM   100.44     LegendNANA
03:00 17.9 14.2 79 0.0 LegendMM LegendMM   100.48     LegendNANA
04:00 17.8 13.8 77 0.0 LegendMM LegendMM   100.54     LegendNANA
05:00 16.9 12.7 76 0.0 LegendMM LegendMM   100.59     LegendNANA
06:00 16.4 11.8 74 0.0 LegendMM LegendMM   100.69     LegendNANA
07:00 16.3 11.2 72 0.0 LegendMM LegendMM   100.76     LegendNANA
08:00 17.0 11.3 69 0.0 LegendMM LegendMM   100.83     LegendNANA
09:00 17.1 11.4 70 0.0 LegendMM LegendMM   100.91     LegendNANA
10:00 17.0 11.6 71 0.0 LegendMM LegendMM   100.94     LegendNANA
11:00 17.5 11.9 70 0.0 LegendMM LegendMM   100.96     LegendNANA
12:00 17.6 11.3 66 0.0 LegendMM LegendMM   100.97     LegendNANA
13:00 18.8 11.3 62 0.0 LegendMM LegendMM   100.96     LegendNANA
14:00 18.9 11.9 64 0.0 LegendMM LegendMM   100.93     LegendNANA
15:00 18.5 12.0 66 0.0 LegendMM LegendMM   100.89     LegendNANA
16:00 18.9 11.8 64 0.0 LegendMM LegendMM   100.88     LegendNANA
17:00 18.8 11.6 63 0.0 LegendMM LegendMM   100.89     LegendNANA
18:00 18.8 11.6 63 0.0 LegendMM LegendMM   100.91     LegendNANA
19:00 18.6 12.2 66 0.0 LegendMM LegendMM   100.94     LegendNANA
20:00 18.2 11.8 66 0.0 LegendMM LegendMM   100.97     LegendNANA
21:00 16.9 11.8 72 0.0 LegendMM LegendMM   100.97     LegendNANA
22:00 16.8 11.3 70 0.0 LegendMM LegendMM   100.94     LegendNANA
23:00 17.8 11.4 66 0.0 LegendMM LegendMM   100.97     LegendNANA

Notes on Data Quality.

Legend

  • E = Estimated
  • M = Missing
  • NA = Not Available*
  • [empty] = Indicates an unobserved value
Date modified: